Location: Unspecified
(0.0000°N, 0.0000°E)
Time: 00:50:45
(UTC+00:00)

ISS - Pass Details

Date: 12 December 2020
Orbit: 418 x 419 km, 51.6° (Epoch: 17 January)

Event Time Altitude Azimuth Distance (km) Brightness Sun altitude
Rises 19:02:11 0° 316° (NW) 2,345 0.3 -15.6°
Reaches altitude 10° 19:04:19 10° 310° (NW) 1,485 -0.6 -16.1°
Maximum altitude 19:07:32 47° 235° (SW) 558 -2.7 -16.8°
Drops below altitude 10° 19:10:47 10° 159° (SSE) 1,493 -0.9 -17.6°
Sets 19:12:56 0° 153° (SSE) 2,359 0.0 -18.1°
